Location: Kirkland Lake
(48.1510°N, 80.0330°W)
Time: 09:17:10
(UTC-04:00)

ISS - Pass Details

Date: 25 April 2026
Orbit: 414 x 424 km, 51.6° (Epoch: 18 May)

Event Time Altitude Azimuth Distance (km) Brightness Sun altitude
Exits shadow 04:56:44 18° 258° (WSW) 1,107 -2.2 -11.8°
Maximum altitude 04:59:06 72° 341° (NNW) 445 -3.6 -11.5°
Drops below altitude 10° 05:02:29 10° 66° (ENE) 1,507 0.5 -11.0°
Sets 05:04:36 0° 69° (ENE) 2,376 1.9 -10.8°
